User: anonymous   Login
Location: Dittelbrunn
(50.0738°N, 10.2196°E)
Time: 11:34:55
(UTC+00:00)
Language:

KORONAS-FOTON - Orbit

View from above orbital plane
View from above orbital plane
View from above satellite
View from above satellite

Ground track
Ground track

The orbit data is extracted from the following two-line orbital elements,

1 33504U 09003A   20329.85902490 +.00000738 +00000-0 +36795-4 0  9992
2 33504 082.4439 063.2068 0020584 084.8558 275.5023 15.15776609651686
Epoch (UTC): 24 November 2020 20:36:59
Eccentricity: 0.0020584
inclination: 82.4439°
perigee height: 504 km
apogee height: 533 km
right ascension of ascending node: 63.2068°
argument of perigee: 84.8558°
revolutions per day: 15.15776609
mean anomaly at epoch: 275.5023°
orbit number at epoch: 65168

The dashed part of the orbit path shows where the satellite is in the earth's shadow,  

DLR